QPF
0.00 0.00 0.00 0.00 0.00 0.00 0.00 0.00 0.00 0.00 0.00 0.00 0.00 0.00 0.00 0.00 0.00 0.00 0.00 0.00 0.00 0.00 0.00 0.00 0.00 0.00 0.00 0.00 0.00 0.00 0.00 0.00 0.00 0.00 0.00 0.00 0.00 0.00 0.00 0.00 0.00 0.00 0.00
0.00 0.00 0.00 0.00 0.00 0.00 0.00 0.00 0.00 0.00 0.00 0.00 0.00 0.00 0.00 0.00 0.00 0.00 0.00 0.00 0.00 0.00 0.00 0.00 0.00 0.00 0.00 0.00 0.00 0.00 0.00 0.00 0.00 0.00 0.00 0.00 0.00 0.00 0.00 0.00 0.00 0.00 0.00
0.00 0.00 0.00 0.00 0.00 0.00 0.00 0.00 0.00 0.00 0.00 0.00 0.00 0.00 0.00 0.00 0.00 0.00 0.00 0.00 0.00 0.00 0.00 0.00 0.00 0.00 0.00 0.00 0.00 0.00 0.00 0.00 0.00 0.00 0.00 0.00 0.00 0.00 0.00 0.00 0.00 0.00 0.00
0.00 0.00 0.00 0.00 0.00 0.00 0.00 0.00 0.00 0.00 0.00 0.00 0.00 0.00 0.00 0.00 0.00 0.00 0.00 0.00 0.00 0.00 0.00 0.00 0.00 0.00 0.00 0.00 0.00 0.00 0.00 0.00 0.00 0.00 0.00 0.00 0.00 0.00 0.00 0.00 0.00 0.00 0.00
0.00 0.00 0.00 0.00 0.00 0.00 0.00 0.00 0.00 0.00 0.00 0.00 0.00 0.00 0.00 0.00 0.00 0.00 0.00 0.00 0.00 0.00 0.00 0.00 0.00 0.00 0.00 0.00 0.00 0.00 0.00 0.00 0.00 0.00 0.00 0.00 0.00 0.00 0.00 0.00 0.00 0.00 0.00
0.00 0.00 0.00 0.00 0.00 0.00 0.00 0.00 0.00 0.00 0.00 0.00 0.00 0.00 0.00 0.00 0.00 0.00 0.00 0.00 0.00 0.00 0.00 0.00 0.00 0.00 0.00 0.00 0.00 0.00 0.00 0.00 0.00 0.00 0.00 0.00 0.00 0.00 0.00 0.00 0.00 0.00 0.00
0.00 0.00 0.00 0.00 0.00 0.00 0.00 0.00 0.00 0.00 0.00 0.00 0.00 0.00 0.00 0.00 0.00 0.00 0.00 0.00 0.00 0.00 0.00 0.00 0.00 0.00 0.00 0.00 0.00 0.00 0.00 0.00 0.00 0.00 0.00 0.00 0.00 0.00 0.00 0.00 0.00 0.00 0.00
0.00 0.00 0.00 0.00 0.00 0.00 0.00 0.00 0.00 0.00 0.00 0.00 0.00 0.00 0.00 0.00 0.00 0.00 0.00 0.00 0.00 0.00 0.00 0.00 0.00 0.00 0.00 0.00 0.00 0.00 0.00 0.00 0.00 0.00 0.00 0.00 0.00 0.00 0.00 0.00 0.00 0.00 0.00
0.00 0.00 0.00 0.00 0.00 0.00 0.00 0.00 0.00 0.00 0.00 0.00 0.00 0.00 0.00 0.00 0.00 0.00 0.00 0.00 0.00 0.00 0.00 0.00 0.00 0.00 0.00 0.00 0.00 0.00 0.00 0.00 0.00 0.00 0.00 0.00 0.00 0.00 0.00 0.00 0.00 0.00 0.00
0.00 0.00 0.00 0.00 0.00 0.00 0.00 0.00 0.00 0.00 0.00 0.00 0.00 0.00 0.00 0.00 0.00 0.00 0.00 0.00 0.00 0.00 0.00 0.00 0.00 0.00 0.00 0.00 0.00 0.00 0.00 0.00 0.00 0.00 0.00 0.00 0.00 0.00 0.00 0.00 0.00 0.00 0.00
0.00 0.00 0.00 0.00 0.00 0.00 0.00 0.00 0.00 0.00 0.00 0.00 0.00 0.00 0.00 0.00 0.00 0.00 0.00 0.00 0.00 0.00 0.00 0.00 0.00 0.00 0.00 0.00 0.00 0.00 0.00 0.00 0.00 0.00 0.00 0.00 0.00 0.00 0.00 0.00 0.00 0.00 0.00
0.00 0.00 0.00 0.00 0.00 0.00 0.00 0.00 0.00 0.00 0.00 0.00 0.00 0.00 0.00 0.00 0.00 0.00 0.00 0.00 0.00 0.00 0.00 0.00 0.00 0.00 0.00 0.00 0.00 0.00 0.00 0.00 0.00 0.00 0.00 0.00 0.00 0.00 0.00 0.00 0.00 0.00 0.00
0.00 0.00 0.00 0.00 0.00 0.00 0.00 0.00 0.00 0.00 0.00 0.00 0.00 0.00 0.00 0.00 0.00 0.00 0.00 0.00 0.00 0.00 0.00 0.00 0.00 0.00 0.00 0.00 0.00 0.00 0.00 0.00 0.00 0.00 0.00 0.00 0.00 0.00 0.00 0.00 0.00 0.00 0.01
0.00 0.00 0.00 0.00 0.00 0.00 0.00 0.00 0.00 0.00 0.00 0.00 0.00 0.00 0.00 0.00 0.00 0.00 0.00 0.00 0.00 0.00 0.00 0.00 0.00 0.00 0.00 0.00 0.00 0.00 0.00 0.00 0.00 0.00 0.00 0.00 0.00 0.00 0.00 0.00 0.00 0.01 0.03
0.00 0.00 0.00 0.00 0.00 0.00 0.00 0.00 0.00 0.00 0.00 0.00 0.00 0.00 0.00 0.00 0.00 0.00 0.00 0.00 0.00 0.00 0.00 0.00 0.00 0.00 0.00 0.00 0.00 0.00 0.00 0.00 0.00 0.00 0.00 0.00 0.00 0.00 0.00 0.00 0.01 0.03 0.03
0.00 0.00 0.00 0.00 0.00 0.00 0.00 0.00 0.00 0.00 0.00 0.00 0.00 0.00 0.00 0.00 0.00 0.00 0.00 0.00 0.00 0.00 0.00 0.00 0.00 0.00 0.00 0.00 0.00 0.00 0.00 0.00 0.00 0.00 0.00 0.00 0.00 0.00 0.00 0.00 0.00 0.00 0.00
0.00 0.00 0.00 0.00 0.00 0.00 0.00 0.00 0.00 0.00 0.00 0.00 0.00 0.00 0.00 0.00 0.00 0.00 0.00 0.00 0.00 0.00 0.00 0.00 0.00 0.00 0.00 0.00 0.00 0.00 0.00 0.00 0.00 0.00 0.00 0.00 0.00 0.00 0.00 0.00 0.00 0.00 0.00
0.00 0.00 0.00 0.00 0.00 0.00 0.00 0.00 0.00 0.00 0.00 0.00 0.00 0.00 0.00 0.00 0.00 0.00 0.00 0.00 0.00 0.00 0.00 0.00 0.00 0.00 0.00 0.00 0.00 0.00 0.00 0.00 0.00 0.00 0.00 0.00 0.00 0.00 0.00 0.00 0.00 0.00 0.00
0.00 0.00 0.00 0.00 0.00 0.00 0.00 0.00 0.00 0.00 0.00 0.00 0.00 0.00 0.00 0.00 0.00 0.00 0.00 0.00 0.00 0.00 0.00 0.00 0.00 0.00 0.00 0.00 0.00 0.00 0.00 0.00 0.00 0.00 0.00 0.00 0.00 0.00 0.00 0.00 0.00 0.00 0.00
0.00 0.00 0.00 0.00 0.00 0.00 0.00 0.00 0.00 0.00 0.00 0.00 0.00 0.00 0.00 0.00 0.00 0.00 0.00 0.00 0.00 0.00 0.00 0.00 0.01 0.01 0.00 0.00 0.00 0.00 0.00 0.00 0.00 0.00 0.00 0.00 0.00 0.00 0.00 0.00 0.00 0.00 0.00
0.00 0.00 0.00 0.00 0.00 0.00 0.00 0.00 0.00 0.00 0.00 0.00 0.00 0.00 0.00 0.00 0.00 0.00 0.00 0.00 0.00 0.00 0.01 0.03 0.04 0.01 0.00 0.00 0.00 0.00 0.00 0.00 0.00 0.00 0.00 0.00 0.00 0.00 0.00 0.00 0.00 0.00 0.00
0.00 0.00 0.00 0.00 0.00 0.00 0.00 0.00 0.00 0.00 0.00 0.00 0.00 0.00 0.00 0.00 0.00 0.00 0.00 0.00 0.00 0.01 0.04 0.04 0.01 0.00 0.00 0.00 0.00 0.00 0.01 0.01 0.01 0.00 0.00 0.00 0.00 0.00 0.00 0.00 0.00 0.00 0.00
0.00 0.00 0.00 0.00 0.00 0.00 0.00 0.00 0.00 0.00 0.00 0.00 0.00 0.00 0.00 0.00 0.00 0.00 0.00 0.00 0.01 0.02 0.02 0.01 0.00 0.00 0.00 0.00 0.02 0.02 0.01 0.01 0.00 0.00 0.00 0.00 0.00 0.00 0.00 0.00 0.00 0.00 0.00
0.00 0.00 0.00 0.00 0.00 0.00 0.00 0.00 0.00 0.00 0.00 0.00 0.00 0.00 0.00 0.00 0.00 0.00 0.00 0.01 0.01 0.00 0.00 0.00 0.00 0.00 0.00 0.01 0.01 0.01 0.00 0.00 0.00 0.00 0.00 0.00 0.00 0.00 0.00 0.00 0.00 0.00 0.00
0.00 0.00 0.00 0.00 0.00 0.00 0.00 0.00 0.00 0.00 0.00 0.00 0.00 0.00 0.00 0.00 0.00 0.00 0.01 0.01 0.00 0.00 0.00 0.00 0.00 0.00 0.00 0.00 0.00 0.00 0.01 0.01 0.01 0.00 0.00 0.00 0.00 0.00 0.00 0.00 0.00 0.00 0.00
0.00 0.00 0.00 0.00 0.00 0.00 0.00 0.00 0.00 0.00 0.00 0.00 0.00 0.00 0.00 0.00 0.00 0.01 0.01 0.00 0.00 0.00 0.00 0.00 0.00 0.00 0.00 0.00 0.00 0.00 0.01 0.04 0.01 0.01 0.00 0.01 0.01 0.01 0.02 0.00 0.00 0.00 0.00
MSLP
1014.56 1015.09 1015.50 1016.01 1016.67 1016.83 1016.56 1016.46 1016.38 1016.35 1016.47 1016.46 1016.61 1016.45 1016.22 1016.21 1016.30 1016.11 1016.38 1016.97 1016.75 1016.50 1016.38 1016.24 1016.18 1015.95 1015.84 1015.73 1015.47 1015.20 1015.09 1015.02 1014.95 1014.82 1014.68 1014.55 1014.29 1014.01 1013.81 1013.50 1013.23 1013.05 1012.90
1014.85 1015.51 1016.05 1016.65 1017.03 1017.16 1017.17 1016.69 1016.70 1016.70 1016.76 1016.68 1016.63 1016.53 1016.42 1016.35 1016.51 1016.43 1016.56 1017.06 1017.34 1017.09 1016.92 1016.74 1016.67 1016.50 1016.33 1016.09 1015.81 1015.53 1015.35 1015.21 1015.08 1014.99 1014.83 1014.65 1014.43 1014.16 1013.85 1013.67 1013.48 1013.27 1013.04
1015.17 1015.71 1016.35 1016.84 1017.13 1017.37 1017.03 1016.92 1017.03 1016.99 1016.93 1016.80 1016.63 1016.54 1016.59 1016.46 1016.66 1016.55 1016.77 1016.93 1017.15 1017.53 1017.47 1017.32 1017.21 1017.01 1016.78 1016.48 1016.14 1015.83 1015.56 1015.46 1015.34 1015.14 1014.92 1014.76 1014.46 1014.16 1013.86 1013.66 1013.48 1013.30 1013.07
1015.26 1015.84 1016.43 1016.95 1017.21 1017.26 1017.09 1017.16 1017.26 1017.11 1017.02 1016.94 1016.50 1016.47 1016.55 1016.58 1016.71 1016.74 1016.90 1017.02 1017.17 1017.06 1017.36 1017.63 1017.50 1017.29 1017.07 1016.74 1016.36 1015.99 1015.65 1015.48 1015.41 1015.17 1014.89 1014.68 1014.34 1013.98 1013.75 1013.61 1013.44 1013.23 1012.96
1015.34 1015.88 1016.53 1016.97 1016.90 1017.16 1017.18 1017.30 1017.51 1017.36 1017.18 1016.97 1016.69 1016.50 1016.57 1016.53 1016.68 1016.92 1016.90 1017.25 1017.39 1017.32 1017.17 1017.38 1017.50 1017.20 1017.15 1016.89 1016.45 1016.09 1015.75 1015.46 1015.33 1015.02 1014.83 1014.50 1014.14 1013.75 1013.52 1013.38 1013.26 1013.05 1012.72
1015.42 1015.89 1016.31 1016.63 1016.88 1017.26 1017.34 1017.53 1017.61 1017.74 1017.71 1017.44 1016.97 1016.62 1016.79 1016.65 1016.75 1016.79 1016.85 1017.11 1017.10 1017.40 1017.20 1017.21 1017.01 1016.60 1016.69 1016.62 1016.43 1016.11 1015.86 1015.52 1015.26 1014.85 1014.62 1014.24 1013.88 1013.46 1013.22 1013.01 1012.83 1012.53 1012.07
1015.63 1015.86 1016.19 1016.63 1016.88 1017.27 1017.53 1017.64 1017.83 1017.87 1017.89 1017.84 1017.16 1016.56 1016.60 1016.86 1016.76 1016.73 1016.78 1016.74 1017.06 1017.15 1017.10 1016.84 1016.70 1016.45 1016.12 1016.12 1015.96 1015.99 1015.81 1015.43 1015.15 1014.77 1014.36 1013.94 1013.54 1013.14 1012.79 1012.52 1012.24 1011.82 1011.27
1015.70 1016.14 1016.01 1016.60 1017.07 1017.51 1017.74 1017.94 1017.99 1018.01 1018.18 1018.35 1017.97 1017.40 1016.55 1016.37 1016.51 1016.68 1016.70 1016.87 1016.64 1016.82 1016.67 1016.70 1016.69 1016.49 1016.22 1015.96 1015.79 1015.86 1015.66 1015.41 1015.05 1014.58 1014.10 1013.66 1013.23 1012.75 1012.30 1011.87 1011.53 1011.13 1010.69
1015.58 1016.26 1016.32 1016.68 1017.18 1017.52 1017.88 1018.20 1018.32 1018.26 1018.26 1018.73 1018.76 1018.13 1017.32 1016.86 1017.11 1016.41 1016.43 1016.63 1016.71 1016.76 1016.75 1016.79 1016.62 1016.37 1016.17 1015.87 1015.60 1015.42 1015.44 1015.38 1014.89 1014.24 1013.68 1013.23 1012.82 1012.21 1011.66 1011.18 1010.78 1010.32 1009.93
1016.32 1016.23 1016.59 1016.88 1017.25 1017.62 1017.99 1018.41 1018.64 1018.72 1018.64 1018.73 1018.87 1018.98 1018.74 1018.54 1017.84 1016.71 1016.50 1016.50 1016.64 1016.90 1016.75 1016.58 1016.40 1016.12 1015.99 1015.66 1015.54 1015.43 1015.34 1015.09 1014.62 1014.02 1013.41 1012.82 1012.22 1011.58 1011.02 1010.51 1009.96 1009.45 1009.02
1016.57 1016.53 1016.79 1017.14 1017.42 1017.75 1018.21 1018.59 1018.84 1018.98 1019.07 1018.94 1019.04 1018.97 1018.80 1018.70 1018.54 1018.16 1016.76 1016.20 1016.43 1016.39 1016.53 1016.54 1016.47 1016.07 1015.65 1015.46 1015.24 1015.11 1015.19 1015.03 1014.55 1013.92 1013.16 1012.41 1011.68 1011.01 1010.41 1009.81 1009.23 1008.76 1008.33
1016.51 1016.81 1017.05 1017.34 1017.70 1018.10 1018.48 1018.84 1019.06 1019.18 1019.23 1019.37 1019.36 1019.25 1019.04 1018.80 1018.36 1018.21 1017.43 1016.80 1016.43 1016.10 1016.04 1016.04 1015.96 1015.68 1015.49 1015.27 1015.06 1014.87 1014.84 1014.52 1013.99 1013.36 1012.71 1012.02 1011.28 1010.58 1009.92 1009.28 1008.72 1008.29 1008.09
1016.31 1016.93 1017.15 1017.46 1017.96 1018.47 1018.78 1018.96 1019.05 1019.18 1019.37 1019.40 1019.44 1019.19 1019.24 1019.05 1018.89 1018.59 1018.06 1017.19 1016.49 1016.14 1015.77 1015.73 1015.22 1015.22 1015.27 1015.03 1014.70 1014.58 1014.37 1013.94 1013.39 1012.75 1012.09 1011.34 1010.67 1010.09 1009.55 1008.98 1008.44 1007.99 1007.53
1015.93 1016.85 1017.17 1017.67 1018.27 1018.65 1018.87 1018.95 1019.02 1019.23 1019.42 1019.40 1019.45 1019.40 1019.27 1019.06 1018.94 1018.70 1018.34 1017.82 1016.36 1015.64 1015.39 1014.74 1014.82 1014.78 1014.95 1014.72 1014.61 1014.39 1013.83 1013.32 1012.86 1012.24 1011.52 1010.87 1010.24 1009.66 1009.11 1008.55 1008.06 1007.78 1007.31
1016.02 1016.83 1017.38 1017.94 1018.47 1018.75 1018.88 1018.94 1019.00 1019.15 1019.31 1019.38 1019.36 1019.35 1019.30 1019.09 1018.95 1018.70 1018.40 1018.08 1017.41 1015.58 1014.67 1014.44 1014.30 1014.41 1014.47 1014.33 1014.04 1013.73 1013.13 1012.56 1012.12 1011.60 1011.01 1010.36 1009.79 1009.30 1008.63 1007.93 1007.56 1007.02 1006.64
1016.20 1016.87 1017.51 1018.15 1018.56 1018.79 1018.96 1019.04 1019.07 1019.21 1019.20 1019.11 1019.23 1019.25 1019.21 1018.97 1018.78 1018.48 1018.17 1017.87 1017.44 1016.57 1014.51 1014.64 1014.29 1014.30 1014.15 1013.86 1013.48 1012.95 1012.25 1011.82 1011.27 1010.74 1010.14 1009.45 1008.93 1008.37 1007.72 1007.09 1006.48 1005.84 1005.28
1016.29 1017.01 1017.65 1018.20 1018.59 1018.74 1018.99 1019.03 1019.05 1019.04 1019.01 1019.02 1019.13 1019.14 1019.05 1018.90 1018.60 1018.25 1017.95 1017.62 1017.10 1016.59 1015.07 1013.85 1014.09 1013.92 1013.70 1013.25 1012.49 1012.01 1011.70 1011.36 1010.29 1009.60 1009.08 1008.59 1008.12 1007.52 1006.87 1006.12 1005.48 1004.92 1004.39
1016.64 1017.26 1017.83 1018.28 1018.61 1018.83 1019.02 1019.02 1018.92 1018.95 1018.92 1018.89 1018.92 1018.93 1018.75 1018.61 1018.39 1018.03 1017.65 1017.29 1016.85 1016.35 1015.50 1013.70 1013.73 1013.32 1012.97 1012.34 1011.92 1011.63 1011.01 1010.26 1009.41 1008.79 1008.19 1007.65 1007.00 1006.33 1005.67 1005.03 1004.41 1003.81 1003.26
1017.09 1017.63 1018.01 1018.35 1018.66 1018.99 1019.10 1019.07 1019.00 1018.87 1018.85 1018.80 1018.75 1018.74 1018.57 1018.35 1017.99 1017.67 1017.39 1016.88 1016.37 1015.78 1015.30 1014.36 1012.80 1012.61 1011.85 1011.91 1011.19 1010.62 1009.96 1009.40 1008.71 1008.14 1007.27 1006.70 1006.03 1005.22 1004.57 1003.90 1003.12 1002.45 1001.84
1017.35 1017.83 1018.23 1018.60 1018.88 1019.10 1019.20 1019.16 1018.99 1018.78 1018.60 1018.49 1018.55 1018.56 1018.33 1018.03 1017.64 1017.35 1016.93 1016.43 1015.81 1015.39 1014.85 1014.00 1012.92 1011.94 1011.64 1010.92 1010.55 1009.44 1008.80 1008.64 1007.84 1007.42 1006.39 1005.76 1004.86 1004.07 1003.43 1002.61 1001.89 1001.31 1000.81
1017.67 1018.18 1018.50 1018.84 1019.07 1019.16 1019.15 1019.08 1018.74 1018.47 1018.33 1018.24 1018.16 1018.00 1017.73 1017.58 1017.57 1017.29 1016.80 1016.19 1015.63 1015.16 1014.59 1013.81 1012.74 1011.92 1011.09 1010.14 1009.65 1009.27 1008.53 1007.77 1007.03 1006.74 1005.27 1004.40 1003.65 1002.87 1002.07 1001.29 1000.62 1000.09 999.56
1018.09 1018.43 1018.71 1019.02 1019.16 1019.18 1019.37 1019.16 1018.89 1018.42 1018.12 1017.93 1017.64 1017.42 1017.18 1017.02 1016.77 1016.61 1016.27 1015.92 1015.62 1015.00 1014.13 1013.28 1012.39 1011.68 1010.73 1010.10 1009.61 1009.02 1008.36 1007.35 1005.95 1005.85 1004.76 1003.36 1003.20 1001.67 1000.86 1000.11 999.51 998.90 998.21
1018.29 1018.58 1018.86 1019.03 1019.01 1019.08 1019.23 1018.99 1018.77 1018.34 1017.90 1017.65 1017.42 1017.13 1016.80 1016.56 1016.32 1015.95 1015.75 1015.26 1014.68 1014.13 1013.48 1012.78 1011.80 1011.21 1010.44 1010.00 1009.79 1008.69 1007.81 1007.14 1005.98 1005.05 1004.62 1002.45 1002.23 1000.67 999.90 998.98 998.23 997.57 996.94
1018.41 1018.65 1018.87 1018.98 1018.98 1018.92 1019.10 1018.91 1018.63 1018.05 1017.64 1017.37 1017.15 1016.87 1016.50 1016.09 1015.81 1015.53 1014.92 1014.38 1013.89 1013.26 1012.37 1011.94 1011.46 1010.77 1010.27 1009.76 1009.20 1008.44 1007.56 1006.66 1005.41 1004.37 1004.05 1002.23 1001.31 1000.04 998.85 998.03 997.10 996.30 995.58
1018.65 1018.80 1018.91 1018.92 1018.76 1018.63 1018.92 1018.78 1018.37 1017.71 1017.18 1016.89 1016.63 1016.23 1015.93 1015.61 1015.50 1014.96 1014.31 1013.65 1012.78 1012.01 1011.57 1011.32 1010.86 1010.16 1009.47 1008.92 1008.56 1008.08 1007.10 1006.25 1004.76 1003.50 1003.03 1002.08 1000.51 999.59 998.53 996.59 995.77 994.85 994.28
1018.72 1018.80 1018.78 1018.75 1018.79 1018.60 1018.60 1018.46 1018.11 1017.51 1016.81 1016.38 1016.02 1015.56 1015.31 1015.12 1014.78 1014.41 1013.82 1013.00 1012.12 1011.47 1011.18 1010.65 1009.76 1009.10 1008.83 1008.28 1007.84 1007.43 1006.82 1006.01 1004.94 1003.27 1002.06 1001.69 1000.60 999.99 997.52 995.83 994.85 994.31 993.17
Thickness
5674 5670 5666 5662 5657 5656 5657 5655 5655 5654 5651 5650 5647 5646 5647 5645 5642 5642 5637 5632 5631 5630 5629 5629 5627 5627 5626 5625 5626 5628 5627 5627 5627 5627 5627 5627 5628 5629 5631 5633 5635 5636 5638
5666 5662 5657 5653 5649 5647 5646 5648 5646 5645 5643 5642 5641 5640 5639 5638 5634 5633 5629 5623 5619 5618 5616 5615 5614 5613 5614 5614 5615 5617 5617 5616 5616 5616 5616 5616 5616 5618 5620 5621 5623 5625 5626
5659 5655 5649 5645 5643 5639 5640 5640 5638 5636 5635 5635 5635 5634 5631 5630 5625 5624 5620 5616 5612 5607 5604 5603 5602 5602 5602 5603 5604 5606 5607 5606 5605 5604 5605 5604 5605 5607 5609 5609 5611 5612 5614
5653 5648 5643 5639 5635 5633 5633 5631 5629 5629 5628 5626 5629 5627 5624 5621 5617 5615 5610 5606 5603 5601 5597 5594 5593 5592 5592 5592 5593 5594 5595 5595 5594 5594 5594 5593 5593 5595 5597 5597 5597 5599 5601
5646 5642 5636 5631 5629 5626 5626 5624 5620 5620 5619 5618 5620 5619 5616 5614 5610 5605 5602 5596 5592 5590 5590 5587 5584 5584 5582 5581 5581 5581 5582 5582 5581 5581 5580 5580 5581 5583 5584 5584 5584 5584 5586
5639 5636 5631 5626 5623 5619 5618 5615 5613 5610 5608 5608 5610 5610 5606 5604 5600 5597 5593 5588 5585 5580 5579 5577 5576 5577 5574 5571 5570 5569 5567 5567 5566 5567 5566 5567 5567 5569 5569 5570 5570 5571 5574
5631 5629 5624 5619 5616 5612 5609 5607 5604 5602 5600 5598 5600 5603 5599 5594 5591 5588 5583 5580 5575 5571 5569 5568 5566 5565 5565 5562 5559 5555 5553 5552 5551 5550 5551 5551 5552 5554 5555 5556 5556 5558 5562
5623 5618 5618 5613 5608 5603 5600 5597 5596 5594 5590 5585 5586 5585 5590 5590 5583 5578 5573 5567 5566 5562 5560 5556 5552 5551 5549 5548 5545 5541 5538 5535 5534 5534 5534 5535 5536 5538 5540 5542 5543 5544 5547
5616 5611 5609 5605 5600 5596 5591 5587 5585 5584 5583 5574 5570 5574 5580 5579 5570 5572 5565 5559 5553 5549 5544 5540 5537 5535 5532 5530 5528 5525 5521 5518 5517 5518 5519 5519 5519 5522 5524 5526 5527 5529 5531
5603 5602 5599 5596 5591 5587 5583 5577 5573 5570 5568 5565 5561 5555 5553 5550 5554 5563 5560 5554 5547 5537 5533 5528 5524 5520 5516 5513 5509 5505 5502 5500 5499 5499 5500 5501 5502 5504 5505 5506 5508 5510 5511
5593 5592 5589 5585 5581 5577 5572 5567 5562 5558 5554 5552 5547 5545 5542 5538 5535 5533 5543 5546 5537 5532 5525 5519 5513 5509 5506 5501 5497 5493 5487 5484 5482 5482 5483 5484 5484 5485 5485 5486 5486 5487 5488
5585 5582 5578 5574 5570 5565 5560 5555 5550 5546 5542 5537 5534 5530 5528 5526 5526 5521 5523 5525 5523 5521 5515 5507 5501 5496 5489 5484 5480 5477 5471 5468 5467 5466 5465 5465 5464 5463 5461 5461 5460 5459 5455
5579 5571 5569 5564 5559 5553 5548 5544 5540 5535 5530 5526 5522 5520 5515 5511 5508 5505 5503 5505 5505 5502 5497 5492 5488 5481 5473 5468 5465 5460 5456 5453 5449 5446 5444 5442 5438 5434 5430 5428 5425 5423 5423
5573 5564 5559 5553 5547 5541 5537 5533 5529 5524 5518 5515 5510 5506 5502 5499 5494 5490 5486 5483 5491 5491 5484 5479 5468 5459 5451 5447 5441 5436 5432 5427 5421 5416 5412 5407 5401 5393 5386 5381 5378 5375 5375
5564 5555 5549 5542 5535 5530 5526 5522 5519 5513 5508 5503 5498 5493 5489 5484 5479 5475 5470 5465 5463 5472 5474 5466 5453 5442 5432 5425 5419 5412 5405 5399 5390 5380 5372 5365 5356 5349 5344 5341 5335 5333 5333
5554 5547 5539 5531 5525 5520 5515 5511 5507 5502 5498 5494 5487 5481 5476 5471 5465 5461 5456 5451 5446 5445 5458 5442 5433 5421 5411 5404 5395 5386 5380 5371 5360 5347 5339 5332 5328 5325 5322 5320 5319 5319 5319
5545 5537 5529 5522 5515 5511 5505 5501 5497 5493 5488 5483 5476 5470 5463 5457 5451 5446 5440 5434 5430 5425 5432 5440 5420 5406 5394 5382 5371 5359 5346 5335 5330 5325 5319 5315 5315 5313 5312 5312 5312 5312 5312
5533 5526 5519 5512 5506 5501 5495 5491 5488 5483 5477 5471 5464 5457 5450 5444 5437 5431 5425 5418 5413 5408 5406 5418 5406 5394 5376 5363 5350 5334 5320 5312 5311 5312 5308 5308 5309 5309 5309 5308 5308 5308 5308
5521 5514 5508 5503 5496 5489 5484 5480 5476 5471 5465 5458 5451 5443 5436 5430 5423 5416 5409 5404 5398 5394 5386 5384 5393 5376 5365 5339 5331 5317 5308 5301 5301 5303 5301 5302 5304 5304 5303 5303 5305 5306 5305
5510 5504 5498 5491 5485 5479 5473 5469 5465 5460 5454 5447 5437 5429 5422 5416 5410 5402 5396 5389 5383 5375 5366 5359 5356 5353 5336 5324 5308 5307 5306 5297 5297 5295 5296 5298 5300 5300 5300 5299 5300 5299 5296
5499 5492 5487 5480 5473 5468 5463 5458 5455 5450 5442 5434 5426 5418 5412 5404 5394 5386 5379 5371 5362 5352 5341 5332 5326 5317 5311 5308 5300 5295 5295 5296 5293 5289 5297 5299 5299 5300 5299 5300 5298 5295 5292
5487 5481 5475 5469 5463 5457 5449 5445 5440 5436 5430 5422 5416 5408 5401 5394 5386 5375 5364 5352 5338 5325 5317 5308 5300 5293 5293 5288 5288 5287 5286 5288 5295 5286 5289 5300 5291 5301 5300 5301 5297 5293 5289
5477 5471 5465 5459 5454 5448 5439 5434 5428 5423 5418 5410 5402 5395 5389 5380 5371 5362 5349 5336 5323 5307 5294 5288 5286 5280 5280 5276 5273 5278 5281 5280 5285 5285 5280 5298 5289 5300 5298 5299 5295 5293 5290
5467 5462 5455 5449 5443 5437 5428 5422 5415 5412 5406 5398 5390 5382 5374 5366 5355 5343 5334 5321 5307 5292 5284 5276 5272 5271 5268 5267 5266 5270 5272 5275 5280 5282 5275 5288 5287 5294 5294 5296 5296 5296 5295
5456 5450 5444 5438 5433 5428 5417 5410 5404 5401 5397 5390 5381 5371 5362 5351 5337 5327 5316 5304 5295 5283 5274 5267 5265 5266 5265 5262 5260 5260 5264 5266 5274 5280 5275 5279 5284 5289 5287 5299 5301 5302 5300
5445 5440 5435 5429 5421 5415 5407 5399 5394 5390 5388 5381 5371 5361 5348 5335 5321 5306 5294 5287 5283 5276 5269 5266 5266 5265 5260 5258 5255 5252 5252 5254 5260 5271 5274 5273 5274 5275 5290 5297 5301 5301 5304